| time (UTC) | temp F | wind direction | speed MPH | gust MPH | rain 1hr in | rain 24hr in | rain mn in | humidity % | barometer mb |
| 20260831142518 | 85 | 0 | 0.0 | 3.0 | 0.00 | 0.00 | 0.00 | 63 | 1017.2 |
| 20260831142018 | 85 | 200 | 0.0 | 2.0 | 0.00 | 0.00 | 0.00 | 64 | 1017.3 |
| 20260831141544 | 84 | 0 | 0.0 | 3.0 | 0.00 | 0.00 | 0.00 | 65 | 1017.1 |
| 20260831141022 | 84 | 0 | 0.0 | 3.0 | 0.00 | 0.00 | 0.00 | 65 | 1017.1 |
| 20260831140521 | 84 | 222 | 0.0 | 3.0 | 0.00 | 0.00 | 0.00 | 67 | 1017.2 |
| 20260831140043 | 83 | 0 | 0.0 | 4.0 | 0.00 | 0.00 | 0.00 | 67 | 1017.1 |
| 20260831135519 | 83 | 0 | 1.0 | 4.0 | 0.00 | 0.00 | 0.00 | 67 | 1017.1 |
| 20260831135024 | 83 | 210 | 0.0 | 6.0 | 0.00 | 0.00 | 0.00 | 67 | 1016.9 |
| 20260831134538 | 83 | 209 | 0.0 | 6.0 | 0.00 | 0.00 | 0.00 | 68 | 1017.1 |
| 20260831134019 | 83 | 0 | 1.0 | 6.0 | 0.00 | 0.00 | 0.00 | 68 | 1017.1 |
| 20260831133519 | 82 | 0 | 1.0 | 5.0 | 0.00 | 0.00 | 0.00 | 68 | 1017.1 |
| 20260831133039 | 82 | 202 | 1.0 | 5.0 | 0.00 | 0.00 | 0.00 | 68 | 1016.8 |
| 20260831132520 | 82 | 0 | 1.0 | 3.0 | 0.00 | 0.00 | 0.00 | 68 | 1016.8 |
| 20260831132018 | 82 | 0 | 0.0 | 5.0 | 0.00 | 0.00 | 0.00 | 68 | 1016.7 |
| 20260831131539 | 82 | 0 | 0.0 | 6.0 | 0.00 | 0.00 | 0.00 | 68 | 1016.7 |
| 20260831131020 | 82 | 211 | 1.0 | 6.0 | 0.00 | 0.00 | 0.00 | 69 | 1016.6 |
| 20260831130519 | 82 | 150 | 1.0 | 5.0 | 0.00 | 0.00 | 0.00 | 70 | 1016.6 |
| 20260831130044 | 81 | 0 | 0.0 | 3.0 | 0.00 | 0.00 | 0.00 | 70 | 1016.4 |
| 20260831125520 | 81 | 210 | 0.0 | 5.0 | 0.00 | 0.00 | 0.00 | 70 | 1016.4 |
| 20260831125021 | 81 | 209 | 0.0 | 5.0 | 0.00 | 0.00 | 0.00 | 70 | 1016.3 |
| 20260831124537 | 81 | 206 | 0.0 | 4.0 | 0.00 | 0.00 | 0.00 | 70 | 1016.3 |
| 20260831124020 | 81 | 0 | 0.0 | 5.0 | 0.00 | 0.00 | 0.00 | 70 | 1016.1 |
| 20260831123519 | 81 | 0 | 0.0 | 5.0 | 0.00 | 0.00 | 0.00 | 70 | 1016.1 |
| 20260831123047 | 81 | 0 | 0.0 | 4.0 | 0.00 | 0.00 | 0.00 | 71 | 1016.0 |
| 20260831122524 | 81 | 166 | 0.0 | 2.0 | 0.00 | 0.00 | 0.00 | 71 | 1015.9 |
| 20260831122017 | 80 | 0 | 0.0 | 3.0 | 0.00 | 0.00 | 0.00 | 72 | 1015.9 |
| 20260831121541 | 80 | 0 | 0.0 | 3.0 | 0.00 | 0.00 | 0.00 | 72 | 1015.8 |
| 20260831121018 | 80 | 0 | 0.0 | 1.0 | 0.00 | 0.00 | 0.00 | 72 | 1015.7 |
| 20260831120522 | 80 | 0 | 0.0 | 1.0 | 0.00 | 0.00 | 0.00 | 71 | 1015.7 |
| 20260831120111 | 81 | 0 | 0.0 | 3.0 | 0.00 | 0.00 | 0.00 | 71 | 1015.6 |
| 20260831115524 | 80 | 0 | 0.0 | 3.0 | 0.00 | 0.00 | 0.00 | 71 | 1015.5 |
| 20260831115027 | 81 | 0 | 0.0 | 1.0 | 0.00 | 0.00 | 0.00 | 70 | 1015.5 |
| 20260831114539 | 81 | 0 | 0.0 | 2.0 | 0.00 | 0.00 | 0.00 | 70 | 1015.5 |
| 20260831114020 | 81 | 0 | 0.0 | 2.0 | 0.00 | 0.00 | 0.00 | 70 | 1015.3 |
| 20260831113517 | 81 | 0 | 0.0 | 2.0 | 0.00 | 0.00 | 0.00 | 70 | 1015.3 |
| 20260831113039 | 81 | 0 | 0.0 | 2.0 | 0.00 | 0.00 | 0.00 | 70 | 1015.2 |
| 20260831112518 | 81 | 0 | 0.0 | 2.0 | 0.00 | 0.00 | 0.00 | 69 | 1015.2 |
| 20260831112019 | 81 | 206 | 0.0 | 1.0 | 0.00 | 0.00 | 0.00 | 69 | 1015.2 |
| 20260831111545 | 82 | 0 | 0.0 | 2.0 | 0.00 | 0.00 | 0.00 | 69 | 1015.1 |
| 20260831111019 | 82 | 0 | 0.0 | 3.0 | 0.00 | 0.00 | 0.00 | 69 | 1015.1 |
| 20260831110524 | 82 | 0 | 0.0 | 3.0 | 0.00 | 0.00 | 0.00 | 69 | 1015.0 |
| 20260831110038 | 82 | 0 | 0.0 | 1.0 | 0.00 | 0.00 | 0.00 | 68 | 1015.0 |
| 20260831105518 | 83 | 0 | 0.0 | 1.0 | 0.00 | 0.00 | 0.00 | 68 | 1015.0 |
| 20260831105019 | 83 | 0 | 0.0 | 1.0 | 0.00 | 0.00 | 0.00 | 68 | 1015.0 |
| 20260831104540 | 83 | 0 | 0.0 | 5.0 | 0.00 | 0.00 | 0.00 | 67 | 1014.9 |
| 20260831104020 | 83 | 0 | 0.0 | 5.0 | 0.00 | 0.00 | 0.00 | 67 | 1014.9 |
| 20260831103519 | 83 | 0 | 0.0 | 1.0 | 0.00 | 0.00 | 0.00 | 67 | 1014.9 |
| 20260831103045 | 83 | 0 | 0.0 | 2.0 | 0.00 | 0.00 | 0.00 | 67 | 1014.9 |
| 20260831102517 | 83 | 0 | 0.0 | 2.0 | 0.00 | 0.00 | 0.00 | 67 | 1014.9 |
| 20260831102019 | 83 | 0 | 0.0 | 2.0 | 0.00 | 0.00 | 0.00 | 66 | 1015.0 |
| 20260831101538 | 83 | 0 | 0.0 | 0.0 | 0.00 | 0.00 | 0.00 | 66 | 1015.0 |
| 20260831101018 | 84 | 0 | 0.0 | 0.0 | 0.00 | 0.00 | 0.00 | 65 | 1014.9 |
| 20260831100518 | 84 | 0 | 0.0 | 0.0 | 0.00 | 0.00 | 0.00 | 65 | 1014.9 |
| 20260831100044 | 84 | 0 | 0.0 | 4.0 | 0.00 | 0.00 | 0.00 | 64 | 1015.0 |
| 20260831095520 | 84 | 0 | 0.0 | 4.0 | 0.00 | 0.00 | 0.00 | 64 | 1014.9 |
| 20260831095020 | 85 | 224 | 0.0 | 4.0 | 0.00 | 0.00 | 0.00 | 63 | 1014.9 |
| 20260831094538 | 85 | 0 | 0.0 | 7.0 | 0.00 | 0.00 | 0.00 | 63 | 1014.9 |
| 20260831094022 | 85 | 219 | 1.0 | 7.0 | 0.00 | 0.00 | 0.00 | 62 | 1014.8 |
| 20260831093520 | 85 | 173 | 0.0 | 7.0 | 0.00 | 0.00 | 0.00 | 62 | 1014.8 |
| 20260831093041 | 85 | 223 | 1.0 | 7.0 | 0.00 | 0.00 | 0.00 | 61 | 1014.9 |
| 20260831092518 | 85 | 0 | 0.0 | 6.0 | 0.00 | 0.00 | 0.00 | 61 | 1014.8 |
| 20260831092018 | 85 | 0 | 0.0 | 6.0 | 0.00 | 0.00 | 0.00 | 61 | 1014.6 |
| 20260831091537 | 85 | 0 | 0.0 | 6.0 | 0.00 | 0.00 | 0.00 | 60 | 1014.6 |
| 20260831091020 | 85 | 203 | 0.0 | 3.0 | 0.00 | 0.00 | 0.00 | 60 | 1014.5 |
| 20260831090522 | 85 | 0 | 0.0 | 5.0 | 0.00 | 0.00 | 0.00 | 59 | 1014.5 |
| 20260831090036 | 85 | 216 | 1.0 | 6.0 | 0.00 | 0.00 | 0.00 | 59 | 1014.4 |
| 20260831085520 | 85 | 0 | 1.0 | 6.0 | 0.00 | 0.00 | 0.00 | 59 | 1014.4 |
| 20260831085020 | 85 | 0 | 0.0 | 6.0 | 0.00 | 0.00 | 0.00 | 58 | 1014.4 |
| 20260831084545 | 85 | 218 | 1.0 | 8.0 | 0.00 | 0.00 | 0.00 | 58 | 1014.4 |
| 20260831084019 | 85 | 0 | 1.0 | 8.0 | 0.00 | 0.00 | 0.00 | 57 | 1014.3 |
| 20260831083519 | 85 | 208 | 0.0 | 1.0 | 0.00 | 0.00 | 0.00 | 57 | 1014.3 |
| 20260831083041 | 85 | 0 | 0.0 | 1.0 | 0.00 | 0.00 | 0.00 | 56 | 1014.4 |
| 20260831082518 | 85 | 0 | 0.0 | 2.0 | 0.00 | 0.00 | 0.00 | 56 | 1014.3 |
| 20260831082016 | 85 | 0 | 0.0 | 2.0 | 0.00 | 0.00 | 0.00 | 55 | 1014.4 |
| 20260831081545 | 86 | 208 | 0.0 | 2.0 | 0.00 | 0.00 | 0.00 | 55 | 1014.4 |
| 20260831081017 | 86 | 0 | 0.0 | 4.0 | 0.00 | 0.00 | 0.00 | 54 | 1014.4 |
| 20260831080517 | 86 | 0 | 0.0 | 7.0 | 0.00 | 0.00 | 0.00 | 53 | 1014.4 |
| 20260831080036 | 87 | 216 | 1.0 | 8.0 | 0.00 | 0.00 | 0.00 | 53 | 1014.4 |
| 20260831075519 | 87 | 155 | 2.0 | 11.0 | 0.00 | 0.00 | 0.00 | 53 | 1014.4 |
| 20260831075020 | 87 | 204 | 3.0 | 11.0 | 0.00 | 0.00 | 0.00 | 53 | 1014.3 |
| 20260831074538 | 86 | 218 | 3.0 | 10.0 | 0.00 | 0.00 | 0.00 | 53 | 1014.3 |
| 20260831074018 | 85 | 183 | 2.0 | 10.0 | 0.00 | 0.00 | 0.00 | 54 | 1014.3 |
| 20260831073517 | 84 | 0 | 0.0 | 1.0 | 0.00 | 0.00 | 0.00 | 55 | 1014.3 |
| 20260831073036 | 84 | 0 | 0.0 | 2.0 | 0.00 | 0.00 | 0.00 | 57 | 1014.4 |
| 20260831072519 | 84 | 0 | 0.0 | 2.0 | 0.00 | 0.00 | 0.00 | 57 | 1014.3 |
| 20260831072017 | 84 | 0 | 0.0 | 1.0 | 0.00 | 0.00 | 0.00 | 57 | 1014.3 |
| 20260831071537 | 84 | 0 | 0.0 | 0.0 | 0.00 | 0.00 | 0.00 | 56 | 1014.3 |
| 20260831071021 | 85 | 0 | 0.0 | 0.0 | 0.00 | 0.00 | 0.00 | 54 | 1014.3 |
| 20260831070517 | 85 | 0 | 0.0 | 2.0 | 0.00 | 0.00 | 0.00 | 54 | 1014.3 |
| 20260831070105 | 85 | 0 | 0.0 | 2.0 | 0.00 | 0.00 | 0.00 | 54 | 1014.3 |
| 20260831065522 | 85 | 215 | 0.0 | 1.0 | 0.00 | 0.00 | 0.00 | 54 | 1014.4 |
| 20260831065018 | 85 | 0 | 0.0 | 1.0 | 0.00 | 0.00 | 0.00 | 54 | 1014.4 |
| 20260831064541 | 85 | 0 | 0.0 | 1.0 | 0.00 | 0.00 | 0.00 | 54 | 1014.4 |
| 20260831064017 | 85 | 0 | 0.0 | 1.0 | 0.00 | 0.00 | 0.00 | 54 | 1014.4 |
| 20260831063520 | 86 | 0 | 0.0 | 0.0 | 0.00 | 0.00 | 0.00 | 54 | 1014.5 |
| 20260831063036 | 86 | 0 | 0.0 | 2.0 | 0.00 | 0.00 | 0.00 | 54 | 1014.4 |
| 20260831062524 | 86 | 0 | 0.0 | 3.0 | 0.00 | 0.00 | 0.00 | 53 | 1014.3 |
| 20260831062020 | 86 | 215 | 0.0 | 3.0 | 0.00 | 0.00 | 0.00 | 53 | 1014.3 |
| 20260831061538 | 86 | 0 | 0.0 | 1.0 | 0.00 | 0.00 | 0.00 | 53 | 1014.4 |
| 20260831061018 | 86 | 0 | 0.0 | 3.0 | 0.00 | 0.00 | 0.00 | 52 | 1014.3 |
| 20260831060518 | 87 | 0 | 0.0 | 3.0 | 0.00 | 0.00 | 0.00 | 52 | 1014.4 |
| 20260831060047 | 87 | 0 | 0.0 | 2.0 | 0.00 | 0.00 | 0.00 | 52 | 1014.5 |
| 20260831055518 | 87 | 0 | 0.0 | 3.0 | 0.00 | 0.00 | 0.00 | 51 | 1014.5 |
| 20260831055022 | 87 | 220 | 0.0 | 3.0 | 0.00 | 0.00 | 0.00 | 51 | 1014.6 |
| 20260831054536 | 88 | 0 | 0.0 | 4.0 | 0.00 | 0.00 | 0.00 | 51 | 1014.6 |
| 20260831054019 | 88 | 0 | 0.0 | 4.0 | 0.00 | 0.00 | 0.00 | 50 | 1014.5 |
| 20260831053518 | 88 | 0 | 0.0 | 3.0 | 0.00 | 0.00 | 0.00 | 50 | 1014.6 |
| 20260831053038 | 88 | 195 | 1.0 | 4.0 | 0.00 | 0.00 | 0.00 | 50 | 1014.6 |
| 20260831052520 | 88 | 0 | 1.0 | 4.0 | 0.00 | 0.00 | 0.00 | 50 | 1014.6 |
| 20260831052019 | 88 | 0 | 0.0 | 2.0 | 0.00 | 0.00 | 0.00 | 50 | 1014.4 |
| 20260831051552 | 88 | 198 | 0.0 | 5.0 | 0.00 | 0.00 | 0.00 | 49 | 1014.5 |
| 20260831051016 | 88 | 198 | 1.0 | 5.0 | 0.00 | 0.00 | 0.00 | 49 | 1014.3 |
| 20260831050516 | 88 | 198 | 0.0 | 5.0 | 0.00 | 0.00 | 0.00 | 49 | 1014.4 |
| 20260831050039 | 88 | 0 | 1.0 | 5.0 | 0.00 | 0.00 | 0.00 | 49 | 1014.4 |
| 20260831045519 | 89 | 0 | 0.0 | 4.0 | 0.00 | 0.00 | 0.00 | 48 | 1014.3 |
| 20260831045021 | 89 | 0 | 0.0 | 5.0 | 0.00 | 0.00 | 0.00 | 48 | 1014.3 |
| 20260831044539 | 89 | 0 | 0.0 | 5.0 | 0.00 | 0.00 | 0.00 | 48 | 1014.4 |
| 20260831044018 | 89 | 190 | 0.0 | 3.0 | 0.00 | 0.00 | 0.00 | 48 | 1014.4 |
| 20260831043519 | 89 | 0 | 0.0 | 2.0 | 0.00 | 0.00 | 0.00 | 48 | 1014.3 |
| 20260831043040 | 89 | 0 | 0.0 | 2.0 | 0.00 | 0.00 | 0.00 | 47 | 1014.4 |
| 20260831042517 | 89 | 187 | 0.0 | 3.0 | 0.00 | 0.00 | 0.00 | 47 | 1014.5 |
| 20260831042020 | 89 | 0 | 0.0 | 3.0 | 0.00 | 0.00 | 0.00 | 47 | 1014.5 |
| 20260831041538 | 89 | 0 | 0.0 | 2.0 | 0.00 | 0.00 | 0.00 | 47 | 1014.3 |
| 20260831041024 | 89 | 0 | 0.0 | 2.0 | 0.00 | 0.00 | 0.00 | 46 | 1014.4 |
| 20260831040520 | 90 | 0 | 0.0 | 4.0 | 0.00 | 0.00 | 0.00 | 46 | 1014.4 |
| 20260831040046 | 90 | 217 | 0.0 | 4.0 | 0.00 | 0.00 | 0.00 | 46 | 1014.4 |
| 20260831035518 | 90 | 0 | 0.0 | 5.0 | 0.00 | 0.00 | 0.00 | 46 | 1014.3 |
| 20260831035017 | 90 | 187 | 0.0 | 5.0 | 0.00 | 0.00 | 0.00 | 45 | 1014.3 |
| 20260831034536 | 90 | 0 | 0.0 | 3.0 | 0.00 | 0.00 | 0.00 | 45 | 1014.2 |
| 20260831034020 | 90 | 0 | 0.0 | 3.0 | 0.00 | 0.00 | 0.00 | 45 | 1014.1 |
| 20260831033517 | 90 | 189 | 0.0 | 3.0 | 0.00 | 0.00 | 0.00 | 45 | 1014.1 |
| 20260831033039 | 90 | 0 | 0.0 | 3.0 | 0.00 | 0.00 | 0.00 | 44 | 1014.1 |
| 20260831032519 | 90 | 190 | 0.0 | 3.0 | 0.00 | 0.00 | 0.00 | 44 | 1014.1 |
| 20260831032019 | 91 | 195 | 0.0 | 4.0 | 0.00 | 0.00 | 0.00 | 44 | 1014.1 |
| 20260831031535 | 91 | 0 | 0.0 | 4.0 | 0.00 | 0.00 | 0.00 | 44 | 1014.1 |
| 20260831031017 | 91 | 0 | 0.0 | 3.0 | 0.00 | 0.00 | 0.00 | 44 | 1014.1 |
| 20260831030518 | 91 | 209 | 0.0 | 3.0 | 0.00 | 0.00 | 0.00 | 44 | 1014.1 |
| 20260831030037 | 91 | 210 | 0.0 | 3.0 | 0.00 | 0.00 | 0.00 | 44 | 1014.1 |
| 20260831025518 | 91 | 0 | 0.0 | 5.0 | 0.00 | 0.00 | 0.00 | 43 | 1014.0 |
| 20260831025020 | 91 | 152 | 0.0 | 5.0 | 0.00 | 0.00 | 0.00 | 44 | 1014.0 |
| 20260831024538 | 91 | 210 | 0.0 | 5.0 | 0.00 | 0.00 | 0.00 | 44 | 1013.9 |
| 20260831024020 | 91 | 183 | 0.0 | 2.0 | 0.00 | 0.00 | 0.00 | 43 | 1013.8 |
| 20260831023520 | 91 | 187 | 0.0 | 2.0 | 0.00 | 0.00 | 0.00 | 43 | 1013.8 |
| 20260831023044 | 91 | 179 | 0.0 | 3.0 | 0.00 | 0.00 | 0.00 | 44 | 1013.8 |
| 20260831022517 | 91 | 0 | 0.0 | 3.0 | 0.00 | 0.00 | 0.00 | 43 | 1013.6 |
| 20260831022020 | 91 | 188 | 0.0 | 3.0 | 0.00 | 0.00 | 0.00 | 45 | 1013.5 |
| 20260831021550 | 91 | 0 | 0.0 | 0.0 | 0.00 | 0.00 | 0.00 | 44 | 1013.5 |
| 20260831021018 | 91 | 0 | 0.0 | 0.0 | 0.00 | 0.00 | 0.00 | 43 | 1013.4 |
| 20260831020520 | 91 | 0 | 0.0 | 0.0 | 0.00 | 0.00 | 0.00 | 44 | 1013.3 |
| 20260831020038 | 92 | 0 | 0.0 | 1.0 | 0.00 | 0.00 | 0.00 | 44 | 1013.3 |
| 20260831015524 | 92 | 0 | 0.0 | 4.0 | 0.00 | 0.00 | 0.00 | 41 | 1013.2 |
| 20260831015019 | 92 | 187 | 0.0 | 4.0 | 0.00 | 0.00 | 0.00 | 42 | 1013.1 |
| 20260831014535 | 92 | 0 | 0.0 | 4.0 | 0.00 | 0.00 | 0.00 | 42 | 1013.1 |
| 20260831014019 | 92 | 205 | 0.0 | 4.0 | 0.00 | 0.00 | 0.00 | 43 | 1012.9 |
| 20260831013517 | 92 | 190 | 0.0 | 5.0 | 0.00 | 0.00 | 0.00 | 45 | 1012.9 |
| 20260831013040 | 92 | 202 | 1.0 | 5.0 | 0.00 | 0.00 | 0.00 | 43 | 1012.8 |
| 20260831012518 | 93 | 0 | 0.0 | 4.0 | 0.00 | 0.00 | 0.00 | 49 | 1012.8 |
| 20260831012019 | 94 | 0 | 0.0 | 6.0 | 0.00 | 0.00 | 0.00 | 38 | 1012.9 |
| 20260831011541 | 95 | 170 | 1.0 | 6.0 | 0.00 | 0.00 | 0.00 | 37 | 1012.8 |
| 20260831011018 | 95 | 0 | 0.0 | 6.0 | 0.00 | 0.00 | 0.00 | 37 | 1012.9 |
| 20260831010517 | 95 | 0 | 1.0 | 6.0 | 0.00 | 0.00 | 0.00 | 38 | 1012.9 |
| 20260831010106 | 95 | 179 | 1.0 | 7.0 | 0.00 | 0.00 | 0.00 | 37 | 1012.9 |
| 20260831005519 | 95 | 185 | 1.0 | 7.0 | 0.00 | 0.00 | 0.00 | 38 | 1012.9 |
| 20260831005018 | 95 | 214 | 1.0 | 7.0 | 0.00 | 0.00 | 0.00 | 38 | 1012.9 |
| 20260831004547 | 95 | 0 | 1.0 | 10.0 | 0.00 | 0.00 | 0.00 | 38 | 1012.8 |
| 20260831004016 | 96 | 186 | 2.0 | 10.0 | 0.00 | 0.00 | 0.00 | 38 | 1012.8 |
| 20260831003519 | 96 | 218 | 1.0 | 7.0 | 0.00 | 0.00 | 0.00 | 38 | 1012.8 |
| 20260831003040 | 96 | 124 | 2.0 | 8.0 | 0.00 | 0.00 | 0.00 | 37 | 1012.8 |
| 20260831002519 | 96 | 202 | 1.0 | 8.0 | 0.00 | 0.00 | 0.00 | 37 | 1012.8 |
| 20260831002018 | 96 | 196 | 2.0 | 7.0 | 0.00 | 0.00 | 0.00 | 37 | 1012.7 |
| 20260831001552 | 97 | 200 | 2.0 | 8.0 | 0.00 | 0.00 | 0.00 | 37 | 1012.7 |
| 20260831001023 | 97 | 207 | 2.0 | 8.0 | 0.00 | 0.00 | 0.00 | 36 | 1012.8 |
| 20260831000518 | 97 | 220 | 1.0 | 8.0 | 0.00 | 0.00 | 0.00 | 36 | 1012.9 |
| 20260831000040 | 97 | 204 | 2.0 | 9.0 | 0.00 | 0.00 | 0.00 | 35 | 1012.9 |
| 20260830235520 | 97 | 0 | 2.0 | 9.0 | 0.00 | 0.00 | 0.00 | 35 | 1013.0 |
| 20260830235019 | 97 | 191 | 1.0 | 10.0 | 0.00 | 0.00 | 0.00 | 35 | 1013.0 |
| 20260830234536 | 97 | 198 | 2.0 | 13.0 | 0.00 | 0.00 | 0.00 | 35 | 1013.1 |
| 20260830234021 | 98 | 151 | 5.0 | 13.0 | 0.00 | 0.00 | 0.00 | 34 | 1013.0 |
| 20260830233520 | 98 | 206 | 0.0 | 9.0 | 0.00 | 0.00 | 0.00 | 35 | 1013.0 |
| 20260830233036 | 98 | 186 | 3.0 | 8.0 | 0.00 | 0.00 | 0.00 | 35 | 1013.1 |
| 20260830232522 | 98 | 200 | 2.0 | 9.0 | 0.00 | 0.00 | 0.00 | 34 | 1013.0 |
| 20260830232020 | 98 | 0 | 2.0 | 10.0 | 0.00 | 0.00 | 0.00 | 34 | 1013.1 |
| 20260830231536 | 98 | 181 | 3.0 | 12.0 | 0.00 | 0.00 | 0.00 | 34 | 1013.1 |
| 20260830231019 | 98 | 222 | 4.0 | 12.0 | 0.00 | 0.00 | 0.00 | 33 | 1013.1 |
| 20260830230519 | 98 | 203 | 1.0 | 8.0 | 0.00 | 0.00 | 0.00 | 33 | 1013.2 |
| 20260830230048 | 99 | 183 | 2.0 | 8.0 | 0.00 | 0.00 | 0.00 | 32 | 1013.3 |
| 20260830225518 | 99 | 229 | 2.0 | 10.0 | 0.00 | 0.00 | 0.00 | 32 | 1013.1 |
| 20260830225019 | 99 | 247 | 3.0 | 10.0 | 0.00 | 0.00 | 0.00 | 31 | 1013.3 |
| 20260830224547 | 99 | 217 | 3.0 | 10.0 | 0.00 | 0.00 | 0.00 | 31 | 1013.3 |
| 20260830224020 | 99 | 0 | 1.0 | 10.0 | 0.00 | 0.00 | 0.00 | 31 | 1013.4 |
| 20260830223523 | 99 | 192 | 3.0 | 8.0 | 0.00 | 0.00 | 0.00 | 31 | 1013.5 |
| 20260830223040 | 100 | 187 | 3.0 | 9.0 | 0.00 | 0.00 | 0.00 | 31 | 1013.5 |
| 20260830222520 | 100 | 251 | 1.0 | 9.0 | 0.00 | 0.00 | 0.00 | 31 | 1013.4 |
| 20260830222024 | 100 | 190 | 2.0 | 8.0 | 0.00 | 0.00 | 0.00 | 31 | 1013.3 |
| 20260830221537 | 100 | 205 | 2.0 | 9.0 | 0.00 | 0.00 | 0.00 | 31 | 1013.3 |
| 20260830221020 | 100 | 175 | 2.0 | 9.0 | 0.00 | 0.00 | 0.00 | 32 | 1013.4 |
| 20260830220518 | 100 | 181 | 0.0 | 8.0 | 0.00 | 0.00 | 0.00 | 32 | 1013.3 |
| 20260830220045 | 101 | 208 | 3.0 | 15.0 | 0.00 | 0.00 | 0.00 | 30 | 1013.4 |
| 20260830215521 | 101 | 217 | 4.0 | 15.0 | 0.00 | 0.00 | 0.00 | 30 | 1013.4 |
| 20260830215018 | 101 | 156 | 5.0 | 11.0 | 0.00 | 0.00 | 0.00 | 31 | 1013.4 |
| 20260830214544 | 100 | 207 | 1.0 | 9.0 | 0.00 | 0.00 | 0.00 | 33 | 1013.4 |
| 20260830214019 | 99 | 114 | 1.0 | 10.0 | 0.00 | 0.00 | 0.00 | 33 | 1013.4 |
| 20260830213524 | 100 | 188 | 3.0 | 10.0 | 0.00 | 0.00 | 0.00 | 32 | 1013.6 |
| 20260830213038 | 102 | 174 | 3.0 | 9.0 | 0.00 | 0.00 | 0.00 | 31 | 1013.7 |
| 20260830212521 | 102 | 227 | 3.0 | 10.0 | 0.00 | 0.00 | 0.00 | 31 | 1013.7 |
| 20260830212020 | 101 | 0 | 1.0 | 10.0 | 0.00 | 0.00 | 0.00 | 32 | 1013.7 |
| 20260830211538 | 100 | 208 | 1.0 | 6.0 | 0.00 | 0.00 | 0.00 | 34 | 1013.7 |
| 20260830211020 | 99 | 193 | 2.0 | 9.0 | 0.00 | 0.00 | 0.00 | 34 | 1013.8 |
| 20260830210517 | 99 | 0 | 0.0 | 9.0 | 0.00 | 0.00 | 0.00 | 33 | 1013.8 |
| 20260830210041 | 100 | 214 | 3.0 | 9.0 | 0.00 | 0.00 | 0.00 | 32 | 1013.9 |
| 20260830205520 | 101 | 191 | 2.0 | 11.0 | 0.00 | 0.00 | 0.00 | 31 | 1014.0 |
| 20260830205018 | 102 | 0 | 2.0 | 11.0 | 0.00 | 0.00 | 0.00 | 31 | 1014.0 |
| 20260830204541 | 102 | 162 | 3.0 | 11.0 | 0.00 | 0.00 | 0.00 | 32 | 1014.1 |
| 20260830204019 | 102 | 185 | 3.0 | 11.0 | 0.00 | 0.00 | 0.00 | 32 | 1014.2 |
| 20260830203523 | 101 | 233 | 2.0 | 13.0 | 0.00 | 0.00 | 0.00 | 33 | 1014.2 |
| 20260830203040 | 101 | 161 | 3.0 | 13.0 | 0.00 | 0.00 | 0.00 | 33 | 1014.3 |
| 20260830202520 | 101 | 214 | 2.0 | 8.0 | 0.00 | 0.00 | 0.00 | 33 | 1014.4 |
| 20260830202019 | 101 | 214 | 1.0 | 11.0 | 0.00 | 0.00 | 0.00 | 33 | 1014.4 |
| 20260830201539 | 101 | 230 | 3.0 | 11.0 | 0.00 | 0.00 | 0.00 | 33 | 1014.6 |
| 20260830201018 | 103 | 171 | 2.0 | 10.0 | 0.00 | 0.00 | 0.00 | 31 | 1014.6 |
| 20260830200517 | 102 | 185 | 1.0 | 7.0 | 0.00 | 0.00 | 0.00 | 32 | 1014.5 |
| 20260830200041 | 103 | 229 | 1.0 | 8.0 | 0.00 | 0.00 | 0.00 | 32 | 1014.6 |
| 20260830195519 | 102 | 162 | 2.0 | 8.0 | 0.00 | 0.00 | 0.00 | 33 | 1014.7 |
| 20260830195017 | 101 | 267 | 1.0 | 10.0 | 0.00 | 0.00 | 0.00 | 34 | 1014.8 |
| 20260830194539 | 101 | 0 | 4.0 | 12.0 | 0.00 | 0.00 | 0.00 | 34 | 1014.9 |
| 20260830194016 | 100 | 175 | 3.0 | 12.0 | 0.00 | 0.00 | 0.00 | 35 | 1015.0 |
| 20260830193524 | 100 | 212 | 5.0 | 12.0 | 0.00 | 0.00 | 0.00 | 34 | 1014.8 |
| 20260830193037 | 100 | 164 | 3.0 | 11.0 | 0.00 | 0.00 | 0.00 | 34 | 1014.9 |
| 20260830192520 | 101 | 0 | 3.0 | 12.0 | 0.00 | 0.00 | 0.00 | 34 | 1015.1 |
| 20260830192018 | 100 | 159 | 3.0 | 13.0 | 0.00 | 0.00 | 0.00 | 35 | 1015.1 |
| 20260830191537 | 99 | 225 | 4.0 | 13.0 | 0.00 | 0.00 | 0.00 | 36 | 1015.3 |
| 20260830191020 | 99 | 170 | 4.0 | 12.0 | 0.00 | 0.00 | 0.00 | 36 | 1015.3 |
| 20260830190520 | 99 | 149 | 4.0 | 12.0 | 0.00 | 0.00 | 0.00 | 37 | 1015.3 |
| 20260830190043 | 99 | 168 | 2.0 | 10.0 | 0.00 | 0.00 | 0.00 | 36 | 1015.3 |
| 20260830185520 | 100 | 230 | 3.0 | 10.0 | 0.00 | 0.00 | 0.00 | 35 | 1015.3 |
| 20260830185019 | 99 | 125 | 2.0 | 10.0 | 0.00 | 0.00 | 0.00 | 36 | 1015.3 |
| 20260830184539 | 99 | 237 | 3.0 | 10.0 | 0.00 | 0.00 | 0.00 | 37 | 1015.3 |
| 20260830184021 | 98 | 234 | 3.0 | 10.0 | 0.00 | 0.00 | 0.00 | 38 | 1015.3 |
| 20260830183526 | 98 | 224 | 3.0 | 10.0 | 0.00 | 0.00 | 0.00 | 38 | 1015.6 |
| 20260830183037 | 98 | 0 | 2.0 | 11.0 | 0.00 | 0.00 | 0.00 | 38 | 1015.4 |
| 20260830182519 | 98 | 218 | 3.0 | 11.0 | 0.00 | 0.00 | 0.00 | 37 | 1015.5 |
| 20260830182018 | 98 | 233 | 3.0 | 9.0 | 0.00 | 0.00 | 0.00 | 37 | 1015.6 |
| 20260830181548 | 98 | 161 | 2.0 | 12.0 | 0.00 | 0.00 | 0.00 | 39 | 1015.7 |
| 20260830181020 | 98 | 243 | 5.0 | 12.0 | 0.00 | 0.00 | 0.00 | 39 | 1015.9 |
| 20260830180517 | 98 | 214 | 3.0 | 10.0 | 0.00 | 0.00 | 0.00 | 39 | 1015.9 |
| 20260830180053 | 98 | 268 | 3.0 | 11.0 | 0.00 | 0.00 | 0.00 | 39 | 1016.0 |
| 20260830175520 | 98 | 222 | 4.0 | 11.0 | 0.00 | 0.00 | 0.00 | 39 | 1016.0 |
| 20260830175020 | 97 | 214 | 3.0 | 11.0 | 0.00 | 0.00 | 0.00 | 40 | 1016.1 |
| 20260830174541 | 97 | 188 | 4.0 | 11.0 | 0.00 | 0.00 | 0.00 | 41 | 1016.1 |
| 20260830174026 | 97 | 162 | 4.0 | 11.0 | 0.00 | 0.00 | 0.00 | 40 | 1016.2 |
| 20260830173519 | 97 | 183 | 2.0 | 8.0 | 0.00 | 0.00 | 0.00 | 42 | 1016.3 |
| 20260830173059 | 96 | 223 | 1.0 | 10.0 | 0.00 | 0.00 | 0.00 | 43 | 1016.4 |
| 20260830172516 | 96 | 210 | 3.0 | 10.0 | 0.00 | 0.00 | 0.00 | 43 | 1016.4 |
| 20260830172021 | 96 | 252 | 3.0 | 9.0 | 0.00 | 0.00 | 0.00 | 44 | 1016.6 |
| 20260830171550 | 96 | 231 | 3.0 | 11.0 | 0.00 | 0.00 | 0.00 | 45 | 1016.7 |
| 20260830171025 | 95 | 0 | 0.0 | 11.0 | 0.00 | 0.00 | 0.00 | 45 | 1016.6 |
| 20260830170517 | 95 | 262 | 5.0 | 11.0 | 0.00 | 0.00 | 0.00 | 45 | 1016.6 |
| 20260830170045 | 95 | 220 | 1.0 | 9.0 | 0.00 | 0.00 | 0.00 | 46 | 1016.7 |
| 20260830165519 | 95 | 218 | 3.0 | 9.0 | 0.00 | 0.00 | 0.00 | 45 | 1016.7 |
| 20260830165019 | 95 | 158 | 3.0 | 8.0 | 0.00 | 0.00 | 0.00 | 47 | 1016.7 |
| 20260830164535 | 95 | 175 | 1.0 | 6.0 | 0.00 | 0.00 | 0.00 | 47 | 1016.6 |
| 20260830164017 | 95 | 0 | 0.0 | 6.0 | 0.00 | 0.00 | 0.00 | 48 | 1016.6 |
| 20260830163524 | 94 | 0 | 1.0 | 9.0 | 0.00 | 0.00 | 0.00 | 49 | 1016.7 |
| 20260830163038 | 93 | 0 | 1.0 | 9.0 | 0.00 | 0.00 | 0.00 | 50 | 1016.7 |
| 20260830162521 | 93 | 200 | 2.0 | 9.0 | 0.00 | 0.00 | 0.00 | 51 | 1017.0 |
| 20260830162019 | 93 | 205 | 1.0 | 8.0 | 0.00 | 0.00 | 0.00 | 51 | 1017.0 |
| 20260830161542 | 93 | 226 | 1.0 | 5.0 | 0.00 | 0.00 | 0.00 | 51 | 1017.0 |
| 20260830161020 | 92 | 293 | 1.0 | 6.0 | 0.00 | 0.00 | 0.00 | 52 | 1016.9 |
| 20260830160517 | 92 | 233 | 2.0 | 10.0 | 0.00 | 0.00 | 0.00 | 53 | 1016.9 |
| 20260830160036 | 92 | 204 | 2.0 | 10.0 | 0.00 | 0.00 | 0.00 | 53 | 1016.9 |
| 20260830155522 | 92 | 0 | 1.0 | 8.0 | 0.00 | 0.00 | 0.00 | 54 | 1016.8 |
| 20260830155016 | 91 | 206 | 3.0 | 9.0 | 0.00 | 0.00 | 0.00 | 54 | 1016.8 |
| 20260830154535 | 91 | 225 | 2.0 | 9.0 | 0.00 | 0.00 | 0.00 | 54 | 1016.8 |
| 20260830154020 | 91 | 181 | 2.0 | 7.0 | 0.00 | 0.00 | 0.00 | 55 | 1016.8 |
| 20260830153518 | 91 | 223 | 2.0 | 6.0 | 0.00 | 0.00 | 0.00 | 55 | 1016.9 |
| 20260830153038 | 90 | 200 | 1.0 | 6.0 | 0.00 | 0.00 | 0.00 | 56 | 1017.0 |
| 20260830152519 | 90 | 208 | 0.0 | 7.0 | 0.00 | 0.00 | 0.00 | 57 | 1017.0 |
| 20260830152018 | 89 | 222 | 1.0 | 7.0 | 0.00 | 0.00 | 0.00 | 57 | 1016.8 |
| 20260830151540 | 89 | 200 | 0.0 | 8.0 | 0.00 | 0.00 | 0.00 | 59 | 1016.9 |
| 20260830151018 | 88 | 0 | 1.0 | 8.0 | 0.00 | 0.00 | 0.00 | 59 | 1016.8 |
| 20260830150520 | 88 | 215 | 0.0 | 4.0 | 0.00 | 0.00 | 0.00 | 60 | 1016.8 |
| 20260830150037 | 87 | 213 | 0.0 | 6.0 | 0.00 | 0.00 | 0.00 | 61 | 1016.8 |
| 20260830145520 | 87 | 0 | 1.0 | 6.0 | 0.00 | 0.00 | 0.00 | 62 | 1016.9 |
| 20260830145019 | 86 | 189 | 2.0 | 6.0 | 0.00 | 0.00 | 0.00 | 63 | 1016.8 |
| 20260830144537 | 86 | 159 | 1.0 | 6.0 | 0.00 | 0.00 | 0.00 | 64 | 1016.8 |
| 20260830144021 | 85 | 201 | 0.0 | 6.0 | 0.00 | 0.00 | 0.00 | 65 | 1016.8 |
| 20260830143517 | 85 | 203 | 2.0 | 6.0 | 0.00 | 0.00 | 0.00 | 65 | 1016.8 |
| 20260830143036 | 85 | 176 | 1.0 | 6.0 | 0.00 | 0.00 | 0.00 | 65 | 1016.8 |